Back to catalog

USA 449

AliveMilitaryVLEO
NORAD 62348·PAYLOAD·🇺🇸 United States

Launched Dec 17, 2024 from Vandenberg Space Force Base

Loading…

Next Passes (next 24 hours)

TLE

StaleSource: Mike McCants

Epoch: Aug 11, 2026, 22:36 UTC

1 62348U 24243J   26223.94216824 0.00000000  00000-0  00000-0 0    02
2 62348  70.0126 156.9518 0005000 351.3755   8.6245 14.96713151    03

Track USA 449 in real time with AllMySat

Download on the App Store